Torna al catalogo

DELTA 1 DEB

AttivoSSO
NORAD 42558·DEBRIS·🇺🇸 United States

Lanciato Jul 23, 1972 da Vandenberg Space Force Base

Loading…

Prossimi Passaggi (prossime 24 ore)

TLE

AggiornatoSource: Space-Track

Epoca: Sep 14, 2026, 08:14 UTC

1 42558U 72058JR  26257.34309565  .00000921  00000-0  16772-3 0  9991
2 42558  97.8973 219.6394 0038106 102.2817 258.2659 14.67867169683573

Traccia DELTA 1 DEB in tempo reale con AllMySat

Download on the App Store